FOREST GROVE OR US AGRIMET current weather conditions

sailwx.info

Wind from 340 at 2 knots gusting 4

Air temperature 15.4° C
Dewpoint 12.9° C

Last reported at 2018-Jun-24 08:30 UTC.
Time now 2018-Jun-24 09:20 UTC

Location: N 45°33' W 123°05'.
View on Google Maps.

See reports from other nearby stations

  
Tides and Currents Weather Stations Pressure Air Temp Water Temp Dewpoint Dewpoint Depression Visibility Wind Speed Wind Dir Waves Ship Positions
date/time (UTC)wind fromknots sea level pressurealtimeterstation pressurevisibilityair tempwater tempwave heightnotes
2018-Jun-24 08:30 340 2 gusting 4 15.4
2018-Jun-24 08:15 332 3 gusting 7 16.0
2018-Jun-24 08:00 341 3 gusting 5 15.9
2018-Jun-24 07:45 335 2 gusting 4 16.0
2018-Jun-24 07:30 345 1 gusting 2 15.8
2018-Jun-24 07:15 335 1 gusting 3 15.9
2018-Jun-24 07:00 327 2 gusting 5 16.7
2018-Jun-24 06:45 332 3 gusting 6 16.8
2018-Jun-24 06:30 325 2 gusting 5 17.1
2018-Jun-24 06:15 305 0 gusting 3 16.9
2018-Jun-24 06:00 311 0 gusting 3 17.3
2018-Jun-24 05:45 312 0 gusting 2 17.4
2018-Jun-24 05:30 303 0 gusting 4 17.5
2018-Jun-24 05:15 328 2 gusting 5 18.5
2018-Jun-24 05:00 332 2 gusting 5 18.8
2018-Jun-24 04:45 327 2 gusting 5 19.1
2018-Jun-24 04:30 329 3 gusting 7 19.4
2018-Jun-24 04:15 331 3 gusting 6 19.9
2018-Jun-24 04:00 343 3 gusting 5 19.9
2018-Jun-24 03:45 356 3 gusting 5 19.6
2018-Jun-24 03:30 355 5 gusting 8 20.5
2018-Jun-24 03:15 358 5 gusting 10 20.8
2018-Jun-24 03:00 341 4 gusting 8 21.6
2018-Jun-24 02:45 357 6 gusting 10 21.7
2018-Jun-24 02:30 360 6 gusting 12 22.2
2018-Jun-24 02:15 343 6 gusting 13 22.6
2018-Jun-24 02:00 353 6 gusting 12 22.8
2018-Jun-24 01:45 330 5 gusting 12 23.1
2018-Jun-24 01:30 341 6 gusting 12 22.9
2018-Jun-24 01:15 341 5 gusting 11 23.3
2018-Jun-24 01:00 356 6 gusting 11 23.1
2018-Jun-24 00:45 356 6 gusting 12 23.0
2018-Jun-24 00:30 008 5 gusting 11 23.4
2018-Jun-24 00:15 002 6 gusting 11 23.5
2018-Jun-24 00:00 012 7 gusting 13 23.2
2018-Jun-23 23:45 020 6 gusting 12 22.8
2018-Jun-23 23:30 027 7 gusting 16 23.0
2018-Jun-23 23:15 022 7 gusting 12 22.9
2018-Jun-23 23:00 030 5 gusting 10 23.3
2018-Jun-23 22:45 22.6
2018-Jun-23 22:30 001 5 gusting 10 22.8
2018-Jun-23 22:15 344 4 gusting 10 22.4
2018-Jun-23 22:00 003 5 gusting 12 22.2
2018-Jun-23 21:45 015 5 gusting 9 21.9
2018-Jun-23 21:30 023 4 gusting 10 21.1
2018-Jun-23 21:15 009 6 gusting 12 22.4
2018-Jun-23 21:00 009 5 gusting 10 22.1
2018-Jun-23 20:45 020 5 gusting 11 21.5
2018-Jun-23 20:30 029 4 gusting 8 21.1
2018-Jun-23 20:15 004 5 gusting 10 20.2
2018-Jun-23 20:00 048 3 gusting 7 20.6
2018-Jun-23 19:45 036 4 gusting 9 20.6
2018-Jun-23 19:30 041 4 gusting 10 21.1
2018-Jun-23 19:15 052 4 gusting 8 19.5
2018-Jun-23 19:00 031 3 gusting 7 19.8
2018-Jun-23 18:45 026 3 gusting 8 20.4
2018-Jun-23 18:30 027 3 gusting 6 19.8
2018-Jun-23 18:15 025 3 gusting 9 19.1
2018-Jun-23 18:00 339 4 gusting 7 19.2
2018-Jun-23 17:45 339 2 gusting 6 18.6
2018-Jun-23 17:30 358 2 gusting 6 18.8
2018-Jun-23 17:15 343 3 gusting 7 18.4
2018-Jun-23 17:00 353 4 gusting 8 18.0
2018-Jun-23 16:45 337 2 gusting 7 17.9
2018-Jun-23 16:30 348 2 gusting 5 17.6
2018-Jun-23 16:15 296 2 gusting 5 18.0
2018-Jun-23 16:00 348 1 gusting 4 17.9
2018-Jun-23 15:45 351 2 gusting 5 17.7
2018-Jun-23 15:30 309 1 gusting 3 16.7
2018-Jun-23 15:15 258 2 gusting 4 16.1
2018-Jun-23 15:00 230 1 gusting 4 16.1
2018-Jun-23 14:45 235 1 gusting 3 15.2
2018-Jun-23 14:30 171 0 gusting 1 14.9
2018-Jun-23 14:15 020 0 gusting 1 14.3
2018-Jun-23 14:00 320 0 gusting 1 14.4
2018-Jun-23 13:45 267 0 gusting 2 14.1
2018-Jun-23 13:30 211 1 gusting 2 13.9
2018-Jun-23 13:15 217 1 gusting 2 13.7
2018-Jun-23 13:00 219 1 gusting 3 5.413.7
2018-Jun-23 12:45 222 0 gusting 1 13.7
2018-Jun-23 12:30 238 0 gusting 2 13.5
2018-Jun-23 12:15 218 1 gusting 3 13.4
2018-Jun-23 12:00 202 1 gusting 2 5.413.5
2018-Jun-23 11:45 218 1 gusting 4 13.5
2018-Jun-23 11:30 216 2 gusting 4 13.5
2018-Jun-23 11:15 191 2 gusting 3 13.0
2018-Jun-23 11:00 208 1 gusting 3 5.413.3
2018-Jun-23 10:45 176 1 gusting 2 12.9
2018-Jun-23 10:30 184 0 gusting 1 13.2
2018-Jun-23 10:15 146 0 gusting 1 12.5
2018-Jun-23 10:00 170 0 gusting 1 5.412.5
2018-Jun-23 09:45 259 0 gusting 2 13.2
2018-Jun-23 09:30 264 0 gusting 2 12.5
2018-Jun-23 09:15 301 0 gusting 2 13.6
2018-Jun-23 09:00 272 0 gusting 2 5.414.2
2018-Jun-23 08:45 264 0 gusting 2 13.9
2018-Jun-23 08:30 290 1 gusting 2 14.1
2018-Jun-23 08:15 351 1 gusting 3 13.8
2018-Jun-23 08:00 312 0 gusting 2 13.8
2018-Jun-23 07:45 010 2 gusting 4 13.6
2018-Jun-23 07:30 355 2 gusting 4 14.1
2018-Jun-23 07:15 359 3 gusting 9 14.2
2018-Jun-23 07:00 002 5 gusting 9 0.514.9 Fog.
2018-Jun-23 06:45 002 6 gusting 10 15.4
2018-Jun-23 06:30 008 4 gusting 8 15.7
2018-Jun-23 06:15 008 6 gusting 10 16.1
2018-Jun-23 06:00 359 6 gusting 12 16.4
2018-Jun-23 05:45 360 5 gusting 10 16.7
2018-Jun-23 05:30 350 5 gusting 10 17.0
2018-Jun-23 05:15 349 4 gusting 9 17.4
2018-Jun-23 05:00 337 5 gusting 11 17.8
2018-Jun-23 04:45 331 5 gusting 11 18.3
2018-Jun-23 04:30 335 6 gusting 11 18.5
2018-Jun-23 04:15 339 7 gusting 12 18.9
2018-Jun-23 04:00 347 7 gusting 12 19.1
2018-Jun-23 03:45 349 7 gusting 12 19.3
2018-Jun-23 03:30 353 8 gusting 14 19.7
2018-Jun-23 03:15 355 7 gusting 13 20.0
2018-Jun-23 03:00 359 7 gusting 13 20.3
2018-Jun-23 02:45 002 6 gusting 11 20.4
2018-Jun-23 02:30 005 6 gusting 10 20.8
2018-Jun-23 02:15 356 7 gusting 12 21.2
2018-Jun-23 02:00 346 8 gusting 14 21.3
2018-Jun-23 01:45 344 7 gusting 12 22.1
2018-Jun-23 01:30 343 6 gusting 13 22.4
2018-Jun-23 01:15 336 5 gusting 11 22.5
2018-Jun-23 01:00 337 4 gusting 10 22.8
2018-Jun-23 00:45 349 5 gusting 9 22.7
2018-Jun-23 00:30 238 2 gusting 5 24.5
2018-Jun-23 00:15 289 1 gusting 4 23.9
2018-Jun-23 00:00 358 3 gusting 7 23.7
2018-Jun-22 23:45 023 3 gusting 8 23.7
2018-Jun-22 23:30 017 2 gusting 8 23.9
2018-Jun-22 23:15 182 2 gusting 6 23.0
2018-Jun-22 23:00 090 2 gusting 6 22.7
2018-Jun-22 22:45 083 2 gusting 7 22.8
2018-Jun-22 22:30 183 2 gusting 6 22.8
2018-Jun-22 22:15 194 3 gusting 6 22.8
2018-Jun-22 22:00 158 2 gusting 6 22.3
2018-Jun-22 21:45 092 1 gusting 3 21.6
2018-Jun-22 21:30 086 3 gusting 8 20.6
2018-Jun-22 21:15 189 3 gusting 7 21.0
2018-Jun-22 21:00 198 2 gusting 9 21.9
2018-Jun-22 20:45 135 2 gusting 5 21.2
2018-Jun-22 20:30 147 3 gusting 8 20.5
2018-Jun-22 20:15 135 4 gusting 8 20.6
2018-Jun-22 20:00 142 4 gusting 7 19.5
2018-Jun-22 19:45 200 2 gusting 8 19.4
2018-Jun-22 19:30 173 2 gusting 7 20.2
2018-Jun-22 19:15 103 3 gusting 8 19.1
2018-Jun-22 19:00 058 1 gusting 5 19.4
2018-Jun-22 18:45 324 2 gusting 4 18.5
2018-Jun-22 18:30 300 1 gusting 4 17.8
2018-Jun-22 18:15 313 1 gusting 3 18.4
2018-Jun-22 18:00 349 2 gusting 5 17.4
2018-Jun-22 17:45 024 1 gusting 4 17.0
2018-Jun-22 17:30 016 2 gusting 5 16.5
2018-Jun-22 17:15 001 1 gusting 5 16.1
2018-Jun-22 17:00 353 3 gusting 5 15.8
2018-Jun-22 16:45 358 4 gusting 7 15.6
2018-Jun-22 16:30 356 4 gusting 8 15.5
2018-Jun-22 16:15 351 4 gusting 7 15.5
2018-Jun-22 16:00 003 3 gusting 5 15.4
2018-Jun-22 15:45 336 3 gusting 6 15.3
2018-Jun-22 15:30 351 3 gusting 6 15.2
2018-Jun-22 15:15 342 2 gusting 5 15.1
2018-Jun-22 15:00 003 2 gusting 5 15.0
2018-Jun-22 14:45 010 1 gusting 3 14.8
2018-Jun-22 14:30 014 2 gusting 3 14.7
2018-Jun-22 14:15 352 1 gusting 3 14.6
2018-Jun-22 14:00 349 2 gusting 3 14.5
2018-Jun-22 13:45 338 1 gusting 3 14.4
2018-Jun-22 13:30 332 1 gusting 2 14.4
2018-Jun-22 13:15 331 2 gusting 4 14.2
2018-Jun-22 13:00 327 2 gusting 5 14.1
2018-Jun-22 12:45 328 2 gusting 4 14.2
2018-Jun-22 12:30 328 2 gusting 5 14.3
2018-Jun-22 12:15 329 3 gusting 6 14.4
2018-Jun-22 12:00 331 3 gusting 5 14.5
2018-Jun-22 11:45 333 4 gusting 7 14.5
2018-Jun-22 11:30 344 3 gusting 7 14.6
2018-Jun-22 11:15 347 4 gusting 7 14.6
2018-Jun-22 11:00 355 4 gusting 8 14.6
2018-Jun-22 10:45 358 4 gusting 9 14.7
2018-Jun-22 10:30 343 4 gusting 8 14.8
2018-Jun-22 10:15 343 5 gusting 9 14.9
2018-Jun-22 10:00 342 4 gusting 8 14.9
2018-Jun-22 09:45 342 3 gusting 7 15.0
2018-Jun-22 09:30 339 4 gusting 9 15.1
2018-Jun-22 09:15 342 4 gusting 8 15.1
2018-Jun-22 09:00 347 4 gusting 7 15.1